Regional Weather Roundup
Issued by NWS

Home | Current Version | Previous Version | Graphics & Text | Print | Product List | Glossary On
Versions: 1 2 3 4 5 6 7 8 9 10 11 12 13 14 15 16 17 18 19 20 21 22 23 24 25 26 27 28 29 30 31 32 33 34 35 36 37 38 39 40 41 42 43 44 45 46 47 48 49 50
373
ASUS43 KDTX 172201
RWRMI
MICHIGAN HOURLY REGIONAL WEATHER ROUNDUP
NATIONAL WEATHER SERVICE DETROIT/PONTIAC MI
500 PM EST SUN DEC 17 2017

NOTE: "FAIR" INDICATES FEW OR NO CLOUDS BELOW 12,000 FEET WITH NO
SIGNIFICANT WEATHER AND/OR OBSTRUCTION TO VISIBILITY.

MIZ047>049-052>055-059>063-066>070-074>076-081>083-172300-
SOUTHEAST LOWER MICHIGAN

CITY           SKY/WX    TMP DP  RH WIND       PRES   REMARKS
ADRIAN         CLOUDY    33  30  88 S3        30.06F FOG
ALMA           CLOUDY    29  26  91 E7        30.06S FOG     WCI  22
ANN ARBOR      CLOUDY    33  30  88 E3        30.06S
BAD AXE        CLOUDY    27  23  84 SE5       30.10F WCI  22
CARO           CLOUDY    28  24  84 E7        30.08S WCI  21
DETROIT CITY   CLOUDY    31  29  92 NE3       30.09S
DETROIT        CLOUDY    36  31  82 E5        30.08S WCI  32
FLINT          CLOUDY    30  26  85 E6        30.07S WCI  24
GROSSE ILE     CLOUDY    34  31  90 SE3       30.06F FOG
HILLSDALE      CLOUDY    32  30  93 SE3       30.02R FOG
HOWELL         CLOUDY    32  31  96 SE7       30.05S FOG     WCI  25

CITY           SKY/WX    TMP DP  RH WIND       PRES   REMARKS
JACKSON        CLOUDY    34  29  82 SE5       30.04S HAZE    WCI  30
LAMBERTVILLE   CLOUDY    33  29  84 CALM      30.06F
LANSING        CLOUDY    32  30  92 SE7       30.04F FOG     WCI  26
LAPEER         CLOUDY    28  24  87 SE7       30.08S WCI  20
MASON          CLOUDY    33  29  83 SE6       30.03F HAZE    WCI  28
MT. CLEMENS    CLOUDY    29  29  99 E7        30.07F FOG     WCI  22
PONTIAC        CLOUDY    30  28  92 E7        30.05S FOG     WCI  23
PORT HOPE        N/A     29  22  75 SE8       30.10S WCI  21
PORT HURON     CLOUDY    27  21  80 E7        30.10F WCI  19
TRI CITIES     CLOUDY    28  24  85 E9        30.08S WCI  19
MIDLAND        CLOUDY    28  23  79 E8        30.07F WCI  20
TROY           CLOUDY    31  29  90 E3        30.09F
SAGINAW HB     CLOUDY    28  25  86 E7        30.08R WCI  21
$$
MIZ043>046-050>051-056>058-064>065-071>073-077>080-172300-
SOUTHWEST LOWER MICHIGAN

CITY           SKY/WX    TMP DP  RH WIND       PRES   REMARKS
BATTLE CREEK   CLOUDY    34  29  82 SE8       30.02F WCI  27
BENTON HARBOR  CLOUDY    37  29  72 SE7       30.00S WCI  32
BIG RAPIDS     CLOUDY    27  25  90 SE9       30.04R FOG     WCI  18
COLDWATER      CLOUDY    33  32  95 SE6       30.02F FOG     WCI  27
HOLLAND        CLOUDY    32  28  85 E6        30.02S FOG     WCI  26
GRAND RAPIDS   CLOUDY    31  29  92 E7        30.03S FOG     WCI  24
IONIA          CLOUDY    32  30  92 E6        30.02F FOG     WCI  26
KALAMAZOO      CLOUDY    33  28  81 SE5       30.02F HAZE    WCI  29
LUDINGTON      CLOUDY    29  26  88 SE5       30.03R FOG     WCI  24
MARSHALL       CLOUDY    32  31  96 SE6       30.03S FOG     WCI  26
MOUNT PLEASANT CLOUDY    29  24  80 E8        30.05S WCI  21
MUSKEGON       CLOUDY    31  25  78 E10       30.02S HAZE    WCI  22
SOUTH HAVEN    CLOUDY    35  29  79 SE3       30.01R
$$
MIZ016>042-172300-
NORTHERN LOWER MICHIGAN

CITY           SKY/WX    TMP DP  RH WIND       PRES   REMARKS
ALPENA         CLOUDY    27  23  85 SE6       30.12S WCI  20
BEAVER ISLAND  CLOUDY    28  25  89 SE9       30.06F WCI  19
BELLAIRE       CLOUDY    28  26  93 NE5       30.07F WCI  22
CADILLAC       CLOUDY    24  24  99 E8        30.00S FOG     WCI  15
CHARLEVOIX     CLOUDY    28  24  83 SE8       30.09F WCI  20
FRANKFORT      CLOUDY    32  28  83 SE3       30.04R
GAYLORD        CLOUDY    23  21  92 SE8       30.03F FOG     WCI  14
GRAYLING       CLOUDY    24  22  91 E8        30.05F FOG     WCI  15
HARBOR SPRINGS CLOUDY    25  21  86 E8        30.07F WCI  16
HOUGHTON LAKE  CLOUDY    24  21  88 E9        30.04F WCI  14
MANISTEE       CLOUDY    30  26  85 SE5       30.03R WCI  25
OSCODA         CLOUDY    28  20  72 S6        30.10F WCI  22
PELLSTON       CLOUDY    25  21  85 SE6       30.09F WCI  18
ROGERS CITY    CLOUDY    26  23  87 CALM      30.12F
TRAVERSE CITY  CLOUDY    29  24  82 E8        30.05S WCI  21
$$
MIZ007>008-015-172300-
EASTERN UPPER MICHIGAN

CITY           SKY/WX    TMP DP  RH WIND       PRES   REMARKS
KINROSS        CLOUDY    14  11  87 E6        30.10F WCI   5
MACKINAC ISLAN CLOUDY    26  20  77 SE5       30.08F WCI  21
NEWBERRY       CLOUDY    17  17  97 E6        30.05F WCI   9
S. S. MARIE    CLOUDY    15   8  73 E7        30.12F WCI   5
MUNISING         N/A     26  24  92 S5        30.02F WCI  20
$$
MIZ004>006-011>014-085-172300-
CENTRAL UPPER MICHIGAN

CITY           SKY/WX    TMP DP  RH WIND       PRES   REMARKS
MANISTIQUE     CLOUDY    28  23  81 E6        30.03F WCI  22
ESCANABA       CLOUDY    30  27  88 SE3       30.03F
MENOMINEE      CLOUDY    32  27  81 CALM      30.03F
SAWYER-GWINN   CLOUDY    25  23  93 S8        29.99F FOG     WCI  16
$$
MIZ001>003-009>011-084-172300-
WESTERN UPPER MICHIGAN

CITY           SKY/WX    TMP DP  RH WIND       PRES   REMARKS
IRON MOUNTAIN  CLOUDY    26  22  84 CALM      29.99S
HOUGHTON       CLOUDY    26  20  77 S5        29.95F WCI  20
COPPER HARBOR    N/A     28  22  78 NW3       29.99S
IRONWOOD       CLOUDY    27  23  85 S6        29.96F WCI  20
$$

ABBREVIATIONS USED IN REMARKS
   TC - TEMPERATURE IN CELSIUS
  WCI - WIND CHILL INDEX
   HX - HEAT INDEX
  VSB - VISIBILITY





USA.gov is the U.S. government's official web portal to all federal, state and local government web resources and services.